Tracking 18843 objects as of 20-November-2017
HD Live streaming from Space Station
objects crossing your sky now

FENGYUN 1C DEB

Track FENGYUN 1C DEB now!
10-day predictions


NORAD ID: 31284
Int'l Code: 1999-025BNS
Perigee: 814.3 km
Apogee: 1,036.1 km
Inclination: 99.7 °
Period: 103.4 minutes
Semi major axis: 7296 km
RCS: 0.0158 m2 (small)
Launch date: May 10, 1999
Source: People's Republic of China (PRC)
Launch site: Taiyaun Space Center, China (TSC)

Note: This is SATELLITE DEBRIS
aabbcc
Your satellite tracking list
Your tracking list is empty




NASA's NSSDC Master Catalog

Two Line Element Set (TLE):
1 31284U 99025BNS 17323.54360222  .00000378  00000-0  29865-3 0  9994
2 31284  99.7362 209.7547 0152015   9.9164 107.0451 13.93030394542704
Source of the keplerian elements: AFSPC